Cairo, Egypt

1:59 PM EET on January 20, 2018 (GMT +0200)
Cairo International Airport

Weather History for HECA - January, 2014

Change the Weather History Date:

Wednesday, January 1, 2014

  Actual Average Record
Temperature  
Mean Temperature 57 °F -  
Max Temperature 64 °F 64 °F 71 °F (2000)
Min Temperature 50 °F 48 °F 46 °F (2002)
Degree Days  
Heating Degree Days 8    
Growing Degree Days 7 (Base 50)    
Moisture  
Dew Point 50 °F    
Average Humidity 81    
Maximum Humidity 100    
Minimum Humidity 52    
Precipitation  
Precipitation 0.00 in 0.01 in - ()
Sea Level Pressure  
Sea Level Pressure 30.11 in    
Wind  
Wind Speed 1 mph ()    
Max Wind Speed 7 mph    
Max Gust Speed -    
Visibility 2.2 miles    
Events Fog    
Averages and records for this station are not official NWS values.
T = Trace of Precipitation, MM = Missing Value Source: Averaged Metar Reports

Daily Weather History Graph

Daily Weather History Graph

Search for Another Location

Airport or City:

Trip Planner

Search our weather history database for the weather conditions in past years. The results will help you decide how hot, cold, wet, or windy it might be!

Date:

Astronomy

Jan. 01, 2014 Rise Set
Actual Time 6:50 AM EET 5:05 PM EET
Civil Twilight 6:24 AM EET 5:31 PM EET
Nautical Twilight 5:54 AM EET 6:01 PM EET
Astronomical Twilight 5:25 AM EET 6:30 PM EET
Moon 6:26 AM EET (1/1) 5:22 PM EET (1/1)
Length of Visible Light 11h 07m
Length of Day
10h 14m
Waning Crescent, 0% of the Moon is Illuminated
Jan 1
Waning Crescent
Jan 1
New
Jan 8
First Quarter
Jan 16
Full
Jan 24
Last Quarter

Hourly Weather History & Observations

Time (EET) Temp. Dew Point Humidity Pressure Visibility Wind Dir Wind Speed Gust Speed Precip Events Conditions
12:00 AM 57.2 °F 53.6 °F 88% 30.09 in 3.7 mi Calm Calm - N/A   Mostly Cloudy
12:30 AM 55.4 °F 53.6 °F 94% 30.09 in 2.5 mi Calm Calm - N/A   Mostly Cloudy
1:00 AM 55.4 °F 51.8 °F 88% 30.09 in 2.5 mi Calm Calm - N/A   Mostly Cloudy
1:30 AM 55.4 °F 53.6 °F 94% 30.09 in 2.5 mi Calm Calm - N/A   Mostly Cloudy
2:00 AM 55.4 °F 53.6 °F 94% 30.09 in 1.2 mi Calm Calm - N/A   Mostly Cloudy
2:30 AM 53.6 °F 53.6 °F 100% 30.09 in 1.2 mi Calm Calm - N/A   Mostly Cloudy
3:00 AM 51.8 °F 51.8 °F 100% 30.09 in 0.6 mi Calm Calm - N/A   Mostly Cloudy
3:30 AM 51.8 °F 51.8 °F 100% 30.09 in 0.6 mi SSW 3.5 mph - N/A   Mostly Cloudy
4:00 AM 51.8 °F 51.8 °F 100% 30.09 in 0.6 mi Calm Calm - N/A   Mostly Cloudy
4:30 AM 51.8 °F 51.8 °F 100% 30.09 in 0.6 mi Calm Calm - N/A   Mostly Cloudy
5:00 AM 53.6 °F 53.6 °F 100% 30.09 in 0.1 mi Calm Calm - N/A Fog Fog
5:30 AM 50.0 °F 50.0 °F 100% 30.09 in 0.1 mi Calm Calm - N/A Fog Fog
6:00 AM 50.0 °F 50.0 °F 100% 30.09 in 0.1 mi Calm Calm - N/A Fog Fog
6:30 AM 50.0 °F 50.0 °F 100% 30.09 in 0.1 mi Calm Calm - N/A Fog Fog
7:00 AM 51.8 °F 51.8 °F 100% 30.12 in 0.1 mi Calm Calm - N/A Fog Fog
7:30 AM 51.8 °F 51.8 °F 100% 30.12 in 0.1 mi Calm Calm - N/A Fog Fog
8:00 AM 53.6 °F 53.6 °F 100% 30.15 in 0.2 mi Calm Calm - N/A Fog Fog
8:30 AM 53.6 °F 53.6 °F 100% 30.15 in 0.3 mi Calm Calm - N/A Fog Fog
9:00 AM 53.6 °F 53.6 °F 100% 30.15 in 0.5 mi Calm Calm - N/A Fog Fog
9:30 AM 55.4 °F 55.4 °F 100% 30.15 in 0.7 mi SSE 2.3 mph - N/A   Mostly Cloudy
10:00 AM 55.4 °F 55.4 °F 100% 30.15 in 0.9 mi Calm Calm - N/A   Mostly Cloudy
10:30 AM 57.2 °F 57.2 °F 100% 30.15 in 1.2 mi Calm Calm - N/A   Mostly Cloudy
11:00 AM 59.0 °F 55.4 °F 88% 30.15 in 1.9 mi Calm Calm - N/A   Scattered Clouds
11:30 AM 60.8 °F 53.6 °F 77% 30.12 in 1.9 mi Calm Calm - N/A   Scattered Clouds
12:00 PM 60.8 °F 50.0 °F 68% 30.12 in 1.9 mi NNW 3.5 mph - N/A   Haze
12:30 PM 62.6 °F 50.0 °F 63% 30.12 in 1.9 mi NW 4.6 mph - N/A   Haze
1:00 PM 62.6 °F 50.0 °F 63% 30.09 in 2.5 mi NW 6.9 mph - N/A   Haze
2:00 PM 62.6 °F 48.2 °F 59% 30.09 in 3.7 mi NNW 4.6 mph - N/A   Unknown
2:30 PM 62.6 °F 46.4 °F 55% 30.09 in 3.7 mi NNW 4.6 mph - N/A   Unknown
3:00 PM 64.4 °F 46.4 °F 52% 30.09 in 3.7 mi NW 4.6 mph - N/A   Unknown
3:30 PM 62.6 °F 44.6 °F 52% 30.09 in 3.7 mi NNW 4.6 mph - N/A   Unknown
4:00 PM 62.6 °F 46.4 °F 55% 30.09 in 3.7 mi NW 5.8 mph - N/A   Unknown
4:30 PM 60.8 °F 46.4 °F 59% 30.12 in 3.7 mi NW 5.8 mph - N/A   Unknown
5:00 PM 60.8 °F 46.4 °F 59% 30.12 in 3.7 mi NNW 5.8 mph - N/A   Unknown
5:30 PM 60.8 °F 50.0 °F 68% 30.12 in 3.7 mi North 3.5 mph - N/A   Unknown
6:00 PM 60.8 °F 46.4 °F 59% 30.12 in 3.7 mi North 2.3 mph - N/A   Unknown
6:30 PM 59.0 °F 46.4 °F 63% 30.15 in 3.7 mi NNE 3.5 mph - N/A   Unknown
7:00 PM 59.0 °F 46.4 °F 63% 30.12 in 3.7 mi Calm Calm - N/A   Unknown
7:30 PM 57.2 °F 46.4 °F 67% 30.15 in 3.7 mi Calm Calm - N/A   Unknown
8:00 PM 57.2 °F 46.4 °F 67% 30.12 in 3.7 mi Calm Calm - N/A   Unknown
8:30 PM 57.2 °F 46.4 °F 67% 30.12 in 3.7 mi Calm Calm - N/A   Unknown
9:00 PM 57.2 °F 46.4 °F 67% 30.12 in 3.7 mi Calm Calm - N/A   Unknown
9:30 PM 57.2 °F 46.4 °F 67% 30.12 in 3.7 mi Calm Calm - N/A   Unknown
10:00 PM 55.4 °F 46.4 °F 72% 30.12 in 3.7 mi Calm Calm - N/A   Unknown
10:30 PM 55.4 °F 46.4 °F 72% 30.12 in 3.7 mi Calm Calm - N/A   Unknown
11:00 PM 55.4 °F 46.4 °F 72% 30.15 in 3.7 mi Calm Calm - N/A   Unknown
11:30 PM 55.4 °F 46.4 °F 72% 30.18 in 2.5 mi Calm Calm - N/A   Haze